Weather History for Point Lay, AK

Change the Weather History Date:

Thursday, October 4, 2012

  Actual Average Record
Temperature  
Mean Temperature 30 °F -  
Max Temperature 33 °F 29 °F 98 °F (2002)
Min Temperature 26 °F 23 °F 12 °F (2013)
Degree Days  
Heating Degree Days 36    
Moisture  
Dew Point 29 °F    
Average Humidity 93    
Maximum Humidity 100    
Minimum Humidity 87    
Precipitation  
Precipitation 0.00 in - - ()
Sea Level Pressure  
Sea Level Pressure 29.86 in    
Wind  
Wind Speed 0 mph (North)    
Max Wind Speed 0 mph    
Max Gust Speed -    
Visibility 7 miles    
Events Fog , Snow    
Averages and records for this station are not official NWS values.
T = Trace of Precipitation, MM = Missing Value Source: NWS Daily Summary

Daily Weather History Graph

Daily Weather History Graph

Search for Another Location

Airport:

Trip Planner

Search our weather history database for the weather conditions in past years. The results will help you decide how hot, cold, wet, or windy it might be!

Date:

Astronomy

Oct. 04, 2012 Rise Set
Actual Time 9:22 AM AKDT 7:56 PM AKDT
Civil Twilight 8:22 AM AKDT 8:56 PM AKDT
Nautical Twilight 7:10 AM AKDT 10:07 PM AKDT
Astronomical Twilight 5:50 AM AKDT 11:26 PM AKDT
Moon No Moon Rise No Moon Set
Length of Visible Light 12h 34m
Length of Day
10h 34m
Waning Gibbous, 81% of the Moon is Illuminated
Oct 4
Waning Gibbous
Oct 7
Last Quarter
Oct 15
New
Oct 21
First Quarter
Oct 29
Full

Hourly Weather History & Observations

Time (AKDT) Temp. Dew Point Humidity Pressure Visibility Wind Dir Wind Speed Gust Speed Precip Events Conditions
12:56 AM 32.0 °F 31.1 °F 96% 29.99 in 10.0 mi Calm Calm - N/A   Overcast
1:56 AM 32.0 °F 30.0 °F 92% 29.98 in 10.0 mi Calm Calm - N/A   Overcast
2:10 AM 32.0 °F 30.2 °F 93% 29.97 in 10.0 mi Calm Calm - N/A   Overcast
2:56 AM 31.1 °F 30.0 °F 96% 29.98 in 10.0 mi Calm Calm - N/A   Overcast
3:56 AM 30.0 °F 29.1 °F 96% 29.98 in 10.0 mi Calm Calm - N/A   Overcast
4:08 AM 30.2 °F 28.4 °F 93% 29.96 in 1.8 mi Calm Calm - N/A   Overcast
4:13 AM 30.2 °F 28.4 °F 93% 29.96 in 1.2 mi Calm Calm - N/A   Overcast
4:17 AM 30.2 °F 28.4 °F 93% 29.96 in 0.8 mi Calm Calm - N/A   Overcast
4:47 AM 30.2 °F 28.4 °F 93% 29.96 in 0.5 mi Calm Calm - N/A Fog Light Freezing Fog
4:56 AM 29.1 °F 28.0 °F 96% 29.97 in 0.5 mi Calm Calm - N/A Fog Light Freezing Fog
5:28 AM 28.4 °F 26.6 °F 93% 29.95 in 1.0 mi Calm Calm - N/A   Overcast
5:31 AM 28.4 °F 26.6 °F 93% 29.94 in 1.5 mi Calm Calm - N/A   Overcast
5:44 AM 28.4 °F 26.6 °F 93% 29.94 in 3.0 mi Calm Calm - N/A   Overcast
5:56 AM 28.0 °F 27.1 °F 96% 29.95 in 10.0 mi Calm Calm - N/A   Mostly Cloudy
6:38 AM 26.6 °F 26.6 °F 100% 29.92 in 10.0 mi Calm Calm - N/A   Scattered Clouds
6:56 AM 27.1 °F 26.1 °F 96% 29.93 in 10.0 mi Calm Calm - N/A   Clear
7:56 AM 27.1 °F 26.1 °F 96% 29.91 in 10.0 mi Calm Calm - N/A   Clear
8:56 AM 27.1 °F 26.1 °F 96% 29.89 in 10.0 mi Calm Calm - N/A   Clear
9:56 AM 28.0 °F 27.1 °F 96% 29.88 in 10.0 mi Calm Calm - N/A   Clear
10:47 AM 28.4 °F 26.6 °F 93% 29.87 in 10.0 mi Calm Calm - N/A   Mostly Cloudy
10:56 AM 29.1 °F 27.1 °F 92% 29.88 in 10.0 mi Calm Calm - N/A   Mostly Cloudy
11:17 AM 28.4 °F 26.6 °F 93% 29.85 in 10.0 mi Calm Calm - N/A   Scattered Clouds
11:56 AM 29.1 °F 28.0 °F 96% 29.86 in 10.0 mi Calm Calm - N/A   Scattered Clouds
12:56 PM 31.1 °F 29.1 °F 92% 29.85 in 10.0 mi Calm Calm - N/A   Partly Cloudy
1:56 PM 31.1 °F 29.1 °F 92% 29.83 in 10.0 mi North - - N/A   Clear
2:56 PM 32.0 °F 30.0 °F 92% 29.82 in 10.0 mi North - - 0.00 in   Clear
3:56 PM 33.8 °F 30.2 °F 87% 29.79 in 10.0 mi North - - N/A   Clear
4:56 PM 32.9 °F 30.0 °F 89% 29.78 in 10.0 mi North - - 0.00 in   Partly Cloudy
5:56 PM 32.9 °F 30.0 °F 89% 29.77 in 6.0 mi North - - 0.00 in Snow Light Snow
6:40 PM 33.8 °F 30.2 °F 87% 29.75 in 7.0 mi North - - 0.00 in   Overcast
6:56 PM 32.0 °F 30.2 °F 93% 29.74 in 8.0 mi North - - N/A   Overcast
7:38 PM 32.0 °F 30.2 °F 93% 29.74 in 2.0 mi North - - 0.00 in Snow Light Snow
7:45 PM 32.0 °F 30.2 °F 93% 29.73 in 1.8 mi North - - 0.00 in Snow Light Snow
7:56 PM 32.0 °F 30.0 °F 92% 29.74 in 2.5 mi North - - 0.00 in Snow Light Snow
8:04 PM 32.0 °F 30.2 °F 93% 29.73 in 6.0 mi North - - 0.00 in   Overcast
8:56 PM 32.0 °F 30.0 °F 92% 29.73 in 10.0 mi North - - 0.00 in   Overcast
9:10 PM 32.0 °F 30.2 °F 93% 29.72 in 10.0 mi North - - N/A   Overcast
9:56 PM 33.8 °F 30.2 °F 87% 29.71 in 10.0 mi North - - N/A   Overcast
10:56 PM 32.9 °F 31.1 °F 93% 29.72 in 10.0 mi North - - N/A   Overcast
11:56 PM 32.9 °F 31.1 °F 93% 29.71 in 10.0 mi North - - 0.00 in   Overcast